Tracy, MN

1:28 PM CDT on April 23, 2018 (GMT -0500)
Tracy

Weather History for KTKC - September, 2013

Change the Weather History Date:

Saturday, September 21, 2013

  Actual Average (KMML) Record (KMML)
Temperature  
Mean Temperature 56 °F -  
Max Temperature 70 °F 69 °F 89 °F (2005)
Min Temperature 42 °F 44 °F 33 °F (1999)
Degree Days  
Heating Degree Days 9    
Growing Degree Days 6 (Base 50)    
Moisture  
Dew Point 43 °F    
Average Humidity 67    
Maximum Humidity 89    
Minimum Humidity 31    
Precipitation  
Precipitation 0.00 in - - ()
Sea Level Pressure  
Sea Level Pressure 29.96 in    
Wind  
Wind Speed 0 mph (North)    
Max Wind Speed 0 mph    
Max Gust Speed -    
Visibility 10 miles    
Events      
Averages and records for this station are not official NWS values.
T = Trace of Precipitation, MM = Missing Value Source: NWS Daily Summary

Daily Weather History Graph

Daily Weather History Graph

Search for Another Location

Airport or City:

Astronomy

Sep. 21, 2013 Rise Set
Actual Time 7:08 AM CDT 7:21 PM CDT
Civil Twilight 6:39 AM CDT 7:50 PM CDT
Nautical Twilight 6:05 AM CDT 8:24 PM CDT
Astronomical Twilight 5:30 AM CDT 8:58 PM CDT
Moon 8:25 PM CDT (9/21) 9:35 AM CDT (9/21)
Length of Visible Light 13h 10m
Length of Day
12h 12m
Waning Gibbous, 94% of the Moon is Illuminated
Sep 21
Waning Gibbous
Sep 26
Last Quarter
Oct 4
New
Oct 11
First Quarter
Oct 18
Full

Hourly Weather History & Observations

Time (CDT) Temp. Dew Point Humidity Pressure Visibility Wind Dir Wind Speed Gust Speed Precip Events Conditions
12:18 AM 47.3 °F 41.7 °F 81% 29.99 in 10.0 mi Calm Calm - N/A   Clear
12:37 AM 46.9 °F 41.9 °F 83% 29.99 in 10.0 mi Calm Calm - N/A   Clear
12:57 AM 46.8 °F 41.9 °F 83% 29.99 in 10.0 mi Calm Calm - N/A   Clear
1:17 AM 46.2 °F 41.4 °F 83% 29.99 in 10.0 mi Calm Calm - N/A   Clear
1:38 AM 45.7 °F 41.0 °F 84% 29.99 in 10.0 mi Calm Calm - N/A   Clear
1:57 AM 45.3 °F 41.0 °F 85% 30.00 in 10.0 mi Calm Calm - N/A   Clear
2:18 AM 45.5 °F 41.4 °F 85% 30.00 in 10.0 mi Calm Calm - N/A   Clear
2:38 AM 45.5 °F 41.2 °F 85% 30.00 in 10.0 mi Calm Calm - N/A   Clear
2:57 AM 44.8 °F 41.0 °F 87% 30.00 in 10.0 mi Calm Calm - N/A   Clear
3:18 AM 45.0 °F 41.0 °F 86% 29.99 in 10.0 mi Calm Calm - N/A   Clear
3:37 AM 44.6 °F 40.6 °F 86% 29.99 in 10.0 mi Calm Calm - N/A   Clear
3:57 AM 44.2 °F 40.6 °F 87% 29.99 in 10.0 mi Calm Calm - N/A   Clear
4:18 AM 45.0 °F 40.6 °F 85% 29.99 in 10.0 mi Calm Calm - N/A   Clear
4:38 AM 44.4 °F 40.3 °F 85% 29.99 in 10.0 mi Calm Calm - N/A   Clear
4:58 AM 44.6 °F 40.3 °F 85% 29.99 in 10.0 mi Calm Calm - N/A   Clear
5:18 AM 45.0 °F 40.3 °F 84% 29.99 in 10.0 mi Calm Calm - N/A   Clear
5:38 AM 43.9 °F 39.7 °F 85% 30.00 in 10.0 mi Calm Calm - N/A   Clear
5:58 AM 45.0 °F 40.1 °F 83% 30.00 in 10.0 mi Calm Calm - N/A   Clear
6:18 AM 44.2 °F 39.7 °F 84% 30.01 in 10.0 mi Calm Calm - N/A   Clear
6:38 AM 43.2 °F 39.2 °F 86% 30.01 in 10.0 mi Calm Calm - N/A   Clear
6:58 AM 42.3 °F 39.2 °F 89% 30.00 in 10.0 mi Calm Calm - N/A   Clear
7:18 AM 43.0 °F 39.2 °F 86% 30.01 in 10.0 mi Calm Calm - N/A   Clear
7:37 AM 43.3 °F 39.6 °F 87% 30.01 in 10.0 mi Calm Calm - N/A   Clear
7:58 AM 42.4 °F 39.2 °F 88% 30.01 in 10.0 mi Calm Calm - N/A   Clear
8:18 AM 46.8 °F 41.5 °F 82% 30.02 in 10.0 mi Calm Calm - N/A   Clear
8:38 AM 48.2 °F 42.8 °F 82% 30.02 in 10.0 mi Calm Calm - N/A   Clear
8:58 AM 49.6 °F 43.0 °F 78% 30.03 in 10.0 mi Calm Calm - N/A   Clear
9:17 AM 51.3 °F 45.0 °F 79% 30.03 in 10.0 mi Calm Calm - N/A   Clear
9:38 AM 53.1 °F 45.9 °F 77% 30.02 in 10.0 mi Calm Calm - N/A   Clear
9:58 AM 54.3 °F 46.2 °F 74% 30.03 in 10.0 mi Calm Calm - N/A   Clear
10:17 AM 55.2 °F 45.7 °F 70% 30.03 in 10.0 mi Calm Calm - N/A   Clear
10:38 AM 56.1 °F 44.8 °F 66% 30.03 in 10.0 mi Calm Calm - N/A   Clear
10:57 AM 56.8 °F 44.2 °F 63% 30.03 in 10.0 mi Calm Calm - N/A   Clear
11:18 AM 58.1 °F 44.4 °F 60% 30.02 in 10.0 mi Calm Calm - N/A   Clear
11:38 AM 59.0 °F 44.6 °F 59% 30.02 in 10.0 mi Calm Calm - N/A   Clear
11:58 AM 59.5 °F 44.2 °F 57% 30.01 in 10.0 mi Calm Calm - N/A   Clear
12:18 PM 61.5 °F 44.6 °F 54% 30.01 in 10.0 mi Calm Calm - N/A   Clear
12:38 PM 63.3 °F 45.0 °F 51% 30.00 in 10.0 mi Calm Calm - N/A   Clear
12:58 PM 63.7 °F 44.4 °F 50% 30.00 in 10.0 mi Calm Calm - N/A   Clear
1:18 PM 64.8 °F 44.2 °F 47% 29.99 in 10.0 mi Calm Calm - N/A   Clear
1:38 PM 64.9 °F 43.0 °F 45% 29.98 in 10.0 mi Calm Calm - N/A   Clear
1:58 PM 66.4 °F 42.4 °F 42% 29.97 in 10.0 mi Calm Calm - N/A   Clear
2:18 PM 66.9 °F 42.4 °F 41% 29.96 in 10.0 mi Calm Calm - N/A   Clear
2:38 PM 67.5 °F 41.4 °F 39% 29.95 in 10.0 mi Calm Calm - N/A   Clear
2:58 PM 68.2 °F 41.4 °F 38% 29.95 in 10.0 mi Calm Calm - N/A   Clear
3:18 PM 68.7 °F 40.3 °F 35% 29.94 in 10.0 mi Calm Calm - N/A   Clear
3:38 PM 69.8 °F 42.3 °F 37% 29.92 in 10.0 mi Calm Calm - N/A   Clear
3:58 PM 69.1 °F 41.9 °F 37% 29.92 in 10.0 mi Calm Calm - N/A   Clear
4:18 PM 69.8 °F 41.5 °F 36% 29.91 in 10.0 mi Calm Calm - N/A   Clear
4:38 PM 70.7 °F 42.3 °F 36% 29.90 in 10.0 mi Calm Calm - N/A   Clear
4:57 PM 70.7 °F 41.7 °F 35% 29.90 in 10.0 mi Calm Calm - N/A   Clear
5:18 PM 70.3 °F 39.0 °F 32% 29.89 in 10.0 mi Calm Calm - N/A   Clear
5:38 PM 70.2 °F 38.3 °F 31% 29.89 in 10.0 mi Calm Calm - N/A   Clear
5:57 PM 69.8 °F 39.0 °F 33% 29.88 in 10.0 mi Calm Calm - N/A   Clear
6:17 PM 68.7 °F 40.3 °F 35% 29.88 in 10.0 mi Calm Calm - N/A   Clear
6:38 PM 67.8 °F 42.1 °F 39% 29.88 in 10.0 mi Calm Calm - N/A   Clear
6:58 PM 65.7 °F 43.5 °F 45% 29.89 in 10.0 mi Calm Calm - N/A   Clear
7:17 PM 63.3 °F 45.3 °F 52% 29.89 in 10.0 mi Calm Calm - N/A   Clear
7:38 PM 60.1 °F 46.6 °F 61% 29.89 in 10.0 mi Calm Calm - N/A   Clear
7:58 PM 57.4 °F 46.2 °F 66% 29.89 in 10.0 mi Calm Calm - N/A   Clear
8:18 PM 55.2 °F 45.5 °F 70% 29.89 in 10.0 mi Calm Calm - N/A   Clear
8:38 PM 54.9 °F 45.3 °F 70% 29.89 in 10.0 mi Calm Calm - N/A   Clear
8:58 PM 54.9 °F 45.5 °F 71% 29.89 in 10.0 mi Calm Calm - N/A   Clear
9:18 PM 54.5 °F 45.5 °F 72% 29.89 in 10.0 mi Calm Calm - N/A   Clear
9:38 PM 54.7 °F 45.5 °F 71% 29.89 in 10.0 mi Calm Calm - N/A   Clear
9:58 PM 54.1 °F 45.5 °F 73% 29.89 in 10.0 mi Calm Calm - N/A   Clear
10:18 PM 53.6 °F 45.5 °F 74% 29.89 in 10.0 mi Calm Calm - N/A   Clear
10:38 PM 52.5 °F 45.1 °F 76% 29.89 in 10.0 mi Calm Calm - N/A   Clear
10:58 PM 51.8 °F 45.0 °F 77% 29.89 in 10.0 mi Calm Calm - N/A   Clear
11:17 PM 50.5 °F 44.6 °F 80% 29.89 in 10.0 mi Calm Calm - N/A   Clear
11:37 PM 50.0 °F 44.6 °F 82% 29.90 in 10.0 mi Calm Calm - N/A   Clear
11:58 PM 50.0 °F 44.6 °F 82% 29.90 in 10.0 mi Calm Calm - N/A   Clear